Vorticity
7 6 5 6 6 5 5 6 6 6 6 5 5 5 6 6 5 5 6 5 6 6 7 7 6 7 7 7 9 7 8 12 9 2 3 10 3 19 2 5 4 7 10
9 7 5 7 6 5 5 5 5 6 6 6 6 5 5 6 7 7 7 7 6 6 6 5 7 7 8 6 10 8 9 9 8 9 9 11 7 7 7 5 4 11 9
5 7 5 5 5 5 6 5 6 6 5 6 5 5 6 6 6 7 10 9 8 7 6 6 8 8 13 9 16 10 9 10 3 -3 -1 4 5 10 6 5 8 8 8
4 3 3 5 7 7 6 4 3 4 5 5 5 5 5 5 5 6 8 12 11 9 7 7 13 17 14 17 4 15 9 6 4 -1 -1 3 7 16 11 4 6 9 9
-0 2 5 4 6 11 6 4 2 -0 3 6 5 4 5 4 4 6 6 7 7 6 14 11 13 13 6 8 7 -5 -1 4 5 5 -1 14 17 13 9 4 11 9 11
11 8 6 4 4 4 2 -1 -0 7 9 6 5 5 5 5 6 6 6 7 9 5 6 19 13 2 2 3 5 4 3 -2 3 -8 1 10 30 16 7 9 11 9 9
12 8 7 9 9 10 10 11 11 12 13 15 8 8 7 7 6 8 8 3 9 -13 5 1 9 10 3 6 10 -21 23 9 -1 13 18 5 15 18 7 11 8 9 8
20 20 18 14 15 14 13 12 14 13 7 17 8 9 11 9 9 11 9 3 2 28 -0 -11 5 15 4 -9 -11 38 -12 9 -8 8 12 2 17 19 9 6 7 10 9
21 21 21 20 20 21 18 18 20 21 25 11 11 5 7 11 5 7 4 17 29 -13 12 -0 -28 10 -9 43 -13 17 17 11 -0 7 2 15 15 13 12 8 7 7 9
4 3 4 4 6 8 11 13 14 14 15 15 14 11 8 7 12 11 6 21 -3 -7 2 50 3 -24 13 14 26 2 18 12 8 6 9 16 19 16 10 11 9 8 8
4 2 -1 -3 -3 -0 2 3 3 6 9 10 11 16 15 15 13 10 4 10 36 -12 17 2 12 3 24 -2 9 28 2 17 -1 6 24 11 16 13 11 12 6 9 9
10 10 7 10 11 8 5 5 4 1 2 3 6 6 6 7 14 17 6 8 16 25 -6 6 4 24 -3 18 -3 18 21 -7 14 10 17 20 18 11 14 10 4 9 9
9 8 11 13 13 12 10 6 4 7 10 8 6 7 8 9 10 8 14 18 -0 15 7 22 -3 2 1 3 21 21 -11 -0 23 14 19 23 9 11 11 11 6 9 10
18 15 14 14 13 12 13 15 15 14 13 10 7 6 6 6 8 9 11 10 11 -4 35 -8 5 15 18 15 21 11 -22 23 10 22 24 8 12 14 12 4 7 11 9
8 11 17 17 15 15 14 14 14 13 11 12 10 8 8 9 8 11 9 15 8 11 -1 10 -0 21 25 9 4 -2 20 9 35 17 11 11 15 14 8 6 11 9 9
5 5 6 6 10 13 14 15 14 16 18 15 11 9 9 12 11 15 7 7 7 11 18 16 4 -5 2 14 20 13 18 30 13 11 12 16 18 7 6 11 10 9 8
16 11 9 8 7 9 9 9 11 14 14 11 18 23 14 10 14 12 8 11 7 3 -0 2 12 19 15 9 12 25 16 13 13 9 14 19 11 5 8 10 10 8 7
20 24 27 25 21 13 10 10 11 10 8 14 13 13 16 19 19 18 18 16 12 9 10 11 12 8 6 16 22 20 18 12 9 14 18 12 5 7 11 10 9 7 6
11 11 12 13 14 18 23 23 14 12 12 9 13 13 14 21 17 18 17 13 13 12 14 16 10 10 17 21 18 15 11 7 11 16 12 8 6 10 10 9 8 7 7
10 11 11 10 11 11 13 15 19 22 14 14 11 14 18 20 12 12 8 8 10 8 11 15 16 24 19 20 15 11 7 11 18 19 12 5 8 10 9 9 8 6 6
14 10 9 8 8 7 10 13 18 19 20 17 15 15 17 13 8 9 8 13 12 12 13 22 23 17 23 15 10 8 7 17 19 11 8 6 11 9 8 8 7 6 7
15 15 13 14 14 14 12 13 15 18 19 19 20 17 16 14 10 9 7 9 16 25 24 19 19 22 10 10 7 6 18 19 14 11 5 9 9 9 8 8 7 8 9
15 16 16 15 14 14 15 15 17 21 22 18 16 16 16 16 13 13 14 24 28 23 17 20 20 11 7 3 4 15 18 18 10 5 8 8 9 9 7 7 7 8 10
15 16 17 17 18 17 15 14 18 21 23 22 19 17 21 25 18 26 29 22 27 14 19 20 9 9 3 2 15 23 20 11 5 7 9 10 8 7 7 8 8 9 12
13 16 18 19 20 20 19 21 21 23 25 27 27 26 25 28 20 21 35 23 11 16 18 7 9 2 5 16 19 16 9 4 7 8 9 8 8 8 8 9 9 11 13
14 16 17 18 22 22 23 24 29 30 28 22 23 25 18 16 18 26 21 16 17 14 4 10 9 7 13 18 15 12 4 7 10 9 8 7 8 8 10 10 12 13 12
Height
3130 3134 3137 3140 3143 3144 3146 3149 3151 3152 3152 3153 3155 3156 3157 3157 3157 3158 3158 3158 3158 3158 3158 3158 3157 3156 3155 3153 3152 3151 3150 3148 3145 3144 3141 3138 3135 3132 3128 3124 3118 3113 3107
3125 3127 3129 3132 3134 3135 3138 3141 3143 3145 3145 3147 3148 3149 3150 3151 3151 3151 3151 3152 3151 3151 3151 3150 3149 3149 3148 3147 3145 3144 3143 3141 3140 3137 3134 3131 3128 3125 3120 3116 3111 3106 3101
3112 3115 3119 3122 3124 3127 3130 3133 3135 3137 3138 3139 3140 3141 3142 3143 3144 3144 3144 3144 3144 3144 3144 3143 3142 3140 3140 3139 3138 3136 3136 3134 3132 3130 3127 3124 3120 3116 3112 3108 3104 3097 3094
3106 3109 3111 3114 3116 3119 3121 3123 3125 3128 3128 3130 3132 3133 3134 3134 3135 3136 3136 3137 3136 3136 3136 3135 3133 3132 3132 3131 3131 3130 3129 3127 3125 3122 3118 3115 3111 3108 3104 3101 3098 3092 3088
3099 3101 3103 3106 3109 3111 3113 3115 3117 3118 3120 3121 3121 3122 3124 3124 3126 3127 3128 3127 3127 3127 3127 3126 3125 3125 3124 3124 3123 3122 3120 3119 3117 3114 3110 3107 3103 3100 3097 3093 3091 3087 3082
3090 3092 3094 3097 3098 3100 3102 3104 3106 3107 3108 3110 3111 3112 3114 3115 3117 3119 3119 3119 3119 3119 3118 3118 3118 3117 3117 3115 3113 3112 3110 3108 3107 3105 3100 3097 3095 3092 3089 3085 3083 3079 3076
3080 3082 3084 3087 3088 3089 3089 3091 3092 3094 3096 3097 3099 3101 3103 3105 3107 3108 3109 3109 3110 3109 3110 3109 3109 3108 3107 3106 3105 3103 3101 3098 3097 3096 3093 3091 3087 3084 3081 3078 3074 3070 3067
3070 3072 3073 3075 3077 3078 3079 3080 3081 3081 3084 3085 3087 3090 3092 3094 3096 3097 3097 3099 3099 3099 3097 3098 3098 3098 3096 3095 3094 3091 3089 3085 3087 3086 3083 3082 3078 3075 3071 3069 3066 3064 3061
3061 3063 3065 3065 3067 3068 3069 3070 3070 3071 3073 3074 3076 3078 3080 3081 3084 3085 3086 3086 3086 3089 3088 3087 3086 3087 3085 3083 3083 3084 3080 3077 3077 3076 3073 3072 3068 3066 3062 3060 3058 3058 3054
3055 3056 3057 3057 3058 3059 3060 3061 3061 3061 3062 3064 3065 3067 3069 3069 3071 3072 3074 3075 3075 3077 3078 3075 3077 3073 3071 3072 3070 3071 3071 3069 3068 3066 3064 3061 3059 3056 3054 3052 3050 3051 3048
3047 3047 3048 3049 3049 3050 3051 3052 3052 3053 3053 3054 3055 3056 3057 3058 3059 3061 3062 3064 3063 3065 3062 3066 3065 3066 3063 3063 3062 3059 3058 3057 3057 3055 3053 3050 3048 3047 3045 3044 3044 3043 3039
3035 3036 3036 3037 3038 3039 3039 3041 3041 3042 3042 3043 3043 3044 3045 3045 3046 3045 3050 3052 3052 3053 3053 3054 3054 3053 3052 3050 3050 3047 3048 3046 3046 3044 3041 3039 3040 3040 3039 3038 3039 3036 3032
3021 3022 3023 3023 3024 3025 3026 3027 3028 3029 3029 3030 3031 3032 3033 3033 3034 3034 3035 3037 3039 3041 3042 3042 3041 3040 3038 3036 3036 3036 3037 3035 3034 3031 3031 3032 3033 3031 3030 3031 3031 3028 3025
3006 3007 3008 3009 3010 3010 3011 3012 3013 3014 3015 3016 3018 3019 3019 3020 3020 3021 3021 3023 3025 3027 3029 3028 3028 3026 3026 3025 3026 3026 3025 3023 3021 3023 3024 3024 3023 3023 3023 3026 3024 3022 3019
2991 2992 2994 2994 2995 2996 2996 2997 2997 2998 2999 3000 3001 3002 3004 3005 3007 3008 3009 3009 3012 3014 3015 3013 3013 3014 3014 3015 3014 3014 3013 3012 3014 3016 3016 3016 3016 3016 3017 3018 3017 3015 3012
2977 2978 2978 2979 2980 2981 2982 2983 2983 2983 2985 2985 2986 2987 2989 2990 2991 2992 2994 2995 2998 2998 2998 2999 3001 3002 3002 3002 3003 3003 3003 3006 3008 3008 3008 3009 3009 3010 3012 3011 3010 3009 3006
2962 2963 2963 2964 2964 2965 2966 2967 2968 2969 2969 2970 2971 2972 2974 2976 2977 2979 2980 2982 2984 2985 2985 2988 2989 2990 2990 2991 2991 2993 2996 2998 2999 2999 3000 3001 3002 3003 3005 3004 3004 3002 3000
2948 2947 2947 2948 2948 2949 2950 2951 2951 2953 2954 2955 2956 2957 2958 2960 2961 2963 2966 2968 2968 2969 2971 2974 2976 2978 2978 2979 2982 2985 2988 2990 2991 2991 2993 2994 2995 2998 2999 2998 2996 2995 2993
2936 2935 2934 2934 2934 2934 2933 2934 2935 2936 2937 2939 2941 2942 2943 2945 2947 2949 2951 2953 2955 2958 2959 2962 2963 2965 2967 2970 2973 2976 2978 2981 2982 2984 2985 2987 2990 2991 2992 2991 2990 2988 2988
2924 2922 2920 2920 2919 2919 2919 2919 2920 2921 2922 2923 2925 2927 2928 2931 2933 2935 2937 2940 2942 2945 2947 2949 2950 2953 2958 2961 2964 2967 2970 2973 2974 2976 2978 2981 2983 2984 2985 2985 2984 2982 2981
2912 2909 2907 2905 2904 2903 2903 2904 2904 2905 2906 2908 2910 2913 2916 2917 2920 2923 2924 2927 2930 2933 2934 2936 2940 2944 2949 2953 2955 2959 2962 2964 2967 2969 2972 2974 2976 2977 2977 2978 2978 2976 2975
2900 2897 2896 2894 2892 2890 2889 2889 2888 2890 2891 2893 2895 2898 2901 2902 2903 2907 2911 2915 2917 2920 2923 2929 2933 2937 2941 2944 2948 2951 2954 2956 2959 2962 2966 2969 2970 2970 2970 2970 2970 2969 2969
2889 2886 2883 2881 2879 2877 2875 2875 2876 2875 2876 2878 2881 2883 2885 2888 2890 2894 2899 2903 2908 2913 2917 2922 2926 2930 2933 2938 2941 2944 2947 2950 2953 2957 2959 2961 2963 2965 2964 2964 2963 2963 2962
2878 2875 2871 2869 2866 2864 2862 2861 2861 2862 2863 2865 2867 2868 2871 2875 2879 2884 2888 2895 2901 2907 2911 2915 2918 2922 2927 2929 2933 2936 2940 2943 2947 2950 2953 2954 2956 2958 2958 2957 2958 2956 2956
2869 2866 2862 2859 2856 2853 2851 2851 2850 2851 2851 2852 2854 2857 2862 2865 2869 2876 2882 2886 2895 2898 2903 2909 2912 2915 2920 2923 2926 2930 2934 2938 2941 2944 2946 2948 2949 2950 2951 2951 2950 2950 2949
2861 2858 2854 2851 2848 2845 2842 2842 2842 2842 2841 2843 2846 2850 2853 2858 2864 2872 2877 2882 2884 2891 2897 2901 2906 2911 2913 2916 2920 2925 2929 2932 2935 2938 2940 2941 2942 2943 2944 2944 2943 2943 2942